{"data":{"norad_id":54114,"intl_designator":"2022-138B","name":"ONEWEB-0492","alt_names":[],"object_type":"PAYLOAD","status":"ACTIVE","operator":null,"country":"UK","launch_date":"2022-10-22","launch_site_code":"SRILR","launch_vehicle":null,"mission":null,"orbit_class":"UNKNOWN","rcs_meters":null,"size_class":null,"mass_kg":null,"dimensions":null,"purposes":["comms"],"wikipedia_slug":null,"has_3d_model":false,"image_url":null,"decayed_at":null,"tle_current":{"epoch":"2026-05-25T04:29:48.562368Z","epoch_age_seconds":59204,"freshness":"FRESH","line1":"1 54114U 22138B   26145.18736762 -.00000748  00000+0 -19011-2 0  9993","line2":"2 54114  87.9149 309.5538 0001608  95.0942 265.0374 13.19729900173809","mean_motion":13.197299,"eccentricity":0.0001608,"inclination_deg":87.9149,"raan_deg":309.5538,"arg_perigee_deg":95.0942,"mean_anomaly_deg":265.0374,"bstar":-0.0019011,"rev_number":17380,"period_min":109.11323597351,"perigee_km":1184.5355560703,"apogee_km":1186.9681027178,"semimajor_km":7563.888829394,"source":"CELESTRAK","updated_at":"2026-05-25T13:38:22.584054Z"}}}